Terug naar catalogus

STARLINK-31549

ActiefCommunicatieVLEO
NORAD 59360·PAYLOAD·🇺🇸 United States

Gelanceerd Mar 31, 2024 vanaf Cape Canaveral Space Force Station

Loading…

Volgende Passages (komende 24 uur)

TLE

VersSource: CelesTrak SupGP

Epoch: Sep 15, 2026, 02:55 UTC

1 59360C 24060N   26258.12201389 -.00012039  00000+0 -43608-3 0  2582
2 59360  43.0025 269.7636 0001449 266.6683 226.4755 15.27581020    16

Volg STARLINK-31549 in realtime met AllMySat

Download on the App Store